Shelbyville, IN

11:27 AM EST on December 10, 2019 (GMT -0500)
Shelbyville Municipal

Weather History for KGEZ - October, 2019

Change the Weather History Date:

Friday, October 4, 2019

  Actual Average Record
Temperature  
Mean Temperature 60 °F 58 °F  
Max Temperature 71 °F 70 °F 87 °F (2007)
Min Temperature 49 °F 46 °F 38 °F (2010)
Degree Days  
Heating Degree Days 5 8  
Month to date heating degree days 5 30  
Since 1 July heating degree days 8 115  
Cooling Degree Days 0 1  
Month to date cooling degree days 36 4  
Year to date cooling degree days 1330 903  
Growing Degree Days 10 (Base 50)    
Moisture  
Dew Point 46 °F    
Average Humidity 62    
Maximum Humidity 89    
Minimum Humidity 35    
Precipitation  
Precipitation 0.00 in 0.12 in 1.10 in (2000)
Month to date precipitation 0.00 0.48  
Year to date precipitation 32.21 33.93  
Sea Level Pressure  
Sea Level Pressure 30.25 in    
Wind  
Wind Speed 7 mph (NNE)    
Max Wind Speed 14 mph    
Max Gust Speed 24 mph    
Visibility 10 miles    
Events      
T = Trace of Precipitation, MM = Missing Value Source: NWS Daily Summary

Daily Weather History Graph

Daily Weather History Graph

Search for Another Location

Airport or City:

Astronomy

Oct. 04, 2019 Rise Set
Actual Time 7:42 AM EDT 7:21 PM EDT
Civil Twilight 7:15 AM EDT 7:48 PM EDT
Nautical Twilight 6:43 AM EDT 8:19 PM EDT
Astronomical Twilight 6:12 AM EDT 8:50 PM EDT
Moon 2:11 PM EDT (10/4) 11:50 PM EDT (10/4)
Length of Visible Light 12h 32m
Length of Day
11h 39m
Waxing Crescent, 39% of the Moon is Illuminated
Oct 4
Waxing Crescent
Oct 5
First Quarter
Oct 13
Full
Oct 21
Last Quarter
Oct 27
New

Hourly Weather History & Observations

Time (EDT) Temp. Dew Point Humidity Pressure Visibility Wind Dir Wind Speed Gust Speed Precip Events Conditions
12:34 AM 61.0 °F 53.1 °F 75% 30.17 in 10.0 mi NNW 10.4 mph - N/A   Mostly Cloudy
12:53 AM 60.1 °F 53.1 °F 78% 30.17 in 10.0 mi NNW 8.1 mph - N/A   Scattered Clouds
1:53 AM 60.1 °F 53.1 °F 78% 30.18 in 10.0 mi North 6.9 mph - N/A   Mostly Cloudy
2:23 AM 59.0 °F 51.1 °F 75% 30.20 in 10.0 mi North 8.1 mph - N/A   Scattered Clouds
2:53 AM 57.0 °F 50.0 °F 77% 30.20 in 10.0 mi North 4.6 mph - N/A   Clear
3:53 AM 55.0 °F 50.0 °F 83% 30.21 in 10.0 mi North 4.6 mph - N/A   Clear
4:53 AM 54.0 °F 50.0 °F 86% 30.23 in 10.0 mi North 3.5 mph - N/A   Mostly Cloudy
5:40 AM 54.0 °F 50.0 °F 86% 30.24 in 10.0 mi North 3.5 mph - N/A   Scattered Clouds
5:53 AM 53.1 °F 50.0 °F 89% 30.24 in 10.0 mi North 4.6 mph - N/A   Clear
6:53 AM 52.0 °F 46.9 °F 83% 30.27 in 10.0 mi North 3.5 mph - N/A   Scattered Clouds
7:53 AM 48.9 °F 45.0 °F 86% 30.29 in 10.0 mi Calm Calm - N/A   Clear
8:53 AM 54.0 °F 46.9 °F 77% 30.30 in 10.0 mi North 3.5 mph - N/A   Clear
9:53 AM 57.0 °F 45.0 °F 64% 30.32 in 10.0 mi NE 11.5 mph 19.6 mph N/A   Clear
10:53 AM 61.0 °F 42.1 °F 50% 30.32 in 10.0 mi NE 6.9 mph 19.6 mph N/A   Clear
11:53 AM 64.0 °F 43.0 °F 46% 30.31 in 10.0 mi Variable 5.8 mph 19.6 mph N/A   Clear
12:53 PM 66.0 °F 43.0 °F 43% 30.30 in 10.0 mi NNE 10.4 mph 20.7 mph N/A   Clear
1:53 PM 69.1 °F 44.1 °F 40% 30.28 in 10.0 mi NNE 11.5 mph 16.1 mph N/A   Clear
2:53 PM 70.0 °F 43.0 °F 38% 30.26 in 10.0 mi NE 8.1 mph 17.3 mph N/A   Clear
3:53 PM 71.1 °F 43.0 °F 36% 30.25 in 10.0 mi North 12.7 mph 18.4 mph N/A   Clear
4:53 PM 70.0 °F 43.0 °F 38% 30.24 in 10.0 mi NE 8.1 mph - N/A   Clear
5:53 PM 68.0 °F 44.1 °F 42% 30.25 in 10.0 mi NE 12.7 mph 19.6 mph N/A   Clear
6:53 PM 64.0 °F 43.0 °F 46% 30.25 in 10.0 mi NE 11.5 mph 18.4 mph N/A   Clear
7:53 PM 60.1 °F 43.0 °F 53% 30.26 in 10.0 mi NNE 6.9 mph - N/A   Clear
8:53 PM 57.0 °F 44.1 °F 62% 30.26 in 10.0 mi NNE 6.9 mph - N/A   Clear
9:53 PM 55.9 °F 44.1 °F 64% 30.27 in 10.0 mi NNE 5.8 mph - N/A   Clear
10:53 PM 54.0 °F 44.1 °F 69% 30.28 in 10.0 mi NE 8.1 mph - N/A   Clear
11:53 PM 53.1 °F 43.0 °F 69% 30.27 in 10.0 mi ENE 8.1 mph - N/A   Clear